Location: Newark
(36.1358°N, 115.1208°W)
Time: 18:08:04
(UTC+00:00)

Vanguard 1 Rocket - Pass Details

Date: 20 February 2020
Orbit: 650 x 4226 km, 34.3° (Epoch: 04 April)

Event Time Altitude Azimuth Distance (km) Brightness Sun altitude
Rises 17:21:08 0° 259° (W) 3,198 9.9 30.7°
Reaches altitude 10° 17:24:53 10° 228° (SW) 2,603 9.8 31.2°
Maximum altitude 17:27:19 12° 204° (SSW) 2,688 10.2 31.6°
Drops below altitude 10° 17:30:10 10° 181° (S) 3,208 11.0 32.0°
Sets 17:36:18 0° 156° (SSE) 4,982 12.2 32.8°
